THOR ABLESTAR DEB

Satellite information

Favourite Embed

Satellite Type and Status

DEBRISIN ORBIT

Key statistics

Satellite THOR ABLESTAR DEB at a glance.

Uptime

23545

Days in orbit

Revolutions

≈ 14.1

Per day

Orbit

LEO

Low Earth Orbit

Inclination

66.5

Latest

Satellite identification and parameters

Extended collection of information and parameters for THOR ABLESTAR DEB.

Object identification

Identified? True

Debris? True

Object name: THOR ABLESTAR DEB

International designator: 1961-015ER

Object number (NORAD): 416

Object ID (CCSDS): 416

Country: UNITED STATES OF AMERICA (US)

Current information (Y/N): Y

RCS size: SMALL

Orbital parameters

Period: 101.799 minutes

Inclination: 66.4986 deg

SMA: 7221.956 km

Apoapsis: 905.083 km

Periapsis: 782.558 km

RAAN: 31.4025 deg

Eccentricy: 0.00848281

Argument of periapsis: 290.8562 deg

Mean anomaly: 68.3458 deg

Mean motion: 14.14557241 rev/day

Mean motion (dot): 0.00000295 rev/day2

B* drag term: 0.00019068001 1/REarth

Two-line elements (TLE)

Creation date: Dec. 14, 2025, 6:24 p.m.

Reference frame: TEME

Reference center: EARTH

Epoch: Dec. 14, 2025, 8:03 a.m. UTC

TLE line 0: 0 THOR ABLESTAR DEB

TLE line 1: 1 00416U 61015ER 25348.33561256 .00000295 00000-0 19068-3 0 9990

TLE line 2: 2 00416 66.4986 31.4025 0084828 290.8562 68.3458 14.14557241305702

Live tracking on map

Real-time ground track for satellite THOR ABLESTAR DEB.

In-orbit conjunctions

A list of the most updated potential collisions computed for object THOR ABLESTAR DEB.

Target Orbit TCA Probability of collision Miss distance Type
CZ-6A DEB LEO 2025-10-06 05:46:27 0.0001078416 52.0 (m) DEBRIS
FENGYUN 1C DEB SSO 2025-07-10 06:36:25 0.0004157303 17.0 (m) DEBRIS

Associated space launch

THOR ABLESTAR DEB was lifted into orbit during the mission ‘Thor DM-21 Ablestar | Transit 4A & Injun-1 & Solrad 3’, on board a Thor DM-21 Ablestar space rocket.

The launch took place on June 29, 1961, 4:23 a.m. from Space Launch Complex 17B.

For more information about the launch, click the button.

Launch to space Thor DM-21 Ablestar | Transit 4A & Injun-1 & Solrad 3
Thor DM-21 Ablestar | Transit 4A & Injun-1 & Solrad 3

Agency: N/A

Status: Launch Successful

Launch date: June 29, 1961, 4:23 a.m. UTC

Rocket: Thor DM-21 Ablestar

Launch pad: Space Launch Complex 17B

Location: Cape Canaveral SFS, FL, USA

...

Latest news about this satellite

There are no fresh news available about this satellite. Check back as we update our databases every day.


Newsletter sign-up

Weekly statistics, charts and insights to help you stay on top of the space industry.